This demonstration page uses our WeatherBlox Daily Observations layout. Learn more.

Left ArrowRight Arrow

39.08367, -84.50855

Hourly Observations for August 22, 2015

Temp ( °F °C ) Dew Point ( °F °C ) Humidity (%) Winds ( mph kmh ) Pressure ( in mb ) Visibility ( mi km ) Precip ( " mm )
12:53 am 00:53 Clear 59 15 58 14.4 96 96 N N/A 30.14 1021 9 14 N/A
1:53 am 01:53 Clear 57 13.9 57 13.9 100 100 N N/A 30.14 1021 9 14 N/A
2:53 am 02:53 Clear 57 13.9 57 13.9 100 100 N N/A 30.13 1020 9 14 N/A
3:53 am 03:53 Clear with Mist and Fog 56 13.3 56 13.3 100 100 ENE 3 6 30.13 1020 2 3 N/A
4:01 am 04:01 Clear with Mist and Fog 56 13.3 56 13.3 100 100 NE 3 6 30.12 1020 3 5 N/A
4:18 am 04:18 Clear with Mist and Fog 55 13 55 13 100 100 N N/A 30.12 1020 2 3 N/A
4:28 am 04:28 Clear with Mist and Fog 55 13 55 13 100 100 N N/A 30.15 1021 1 1 N/A
4:38 am 04:38 Clear with Mist and Fog 55 13 55 13 100 100 NE 3 6 30.15 1021 1 2 N/A
4:51 am 04:51 Clear with Mist and Fog 55 13 55 13 100 100 N N/A 30.15 1021 3 5 N/A
4:53 am 04:53 Clear with Mist and Fog 56 13.3 56 13.3 100 100 N N/A 30.13 1020 5 8 N/A
5:40 am 05:40 Clear with Mist and Fog 55 13 55 13 100 100 N N/A 30.15 1021 2 3 N/A
5:53 am 05:53 Clear with Mist and Fog 55 12.8 55 12.8 100 100 N N/A 30.14 1021 2 2 N/A
6:11 am 06:11 Clear with Fog 54 12.2 54 12.2 100 100 ENE 3 6 30.15 1021 1 1 N/A
6:20 am 06:20 Mostly Cloudy with Mist and Fog 54 12 54 12 100 100 ENE 3 6 30.15 1021 1 2 N/A
6:28 am 06:28 Clear with Fog 54 12 54 12 100 100 NE 3 6 30.15 1021 1 1 N/A
6:37 am 06:37 Mostly Cloudy with Mist and Fog 55 13 55 13 100 100 N N/A 30.15 1021 1 1 N/A
6:43 am 06:43 Mostly Clear with Mist and Fog 55 12.8 55 12.8 100 100 NE 3 6 30.15 1021 1 2 N/A
6:47 am 06:47 Mostly Clear with Mist and Fog 55 13 55 13 100 100 NNE 3 6 30.15 1021 3 5 N/A
6:53 am 06:53 Clear with Patchy Fog 55 12.8 55 12.8 100 100 NNE 3 6 30.14 1021 4 6 N/A
6:58 am 06:58 Partly Cloudy with Patchy Fog 54 12.2 54 12.2 100 100 undefined N/A 30.15 1021 6 10 N/A
7:13 am 07:13 Mostly Cloudy with Patchy Fog 55 12.8 55 12.8 100 100 undefined N/A 30.15 1021 6 10 N/A
7:22 am 07:22 Partly Cloudy with Patchy Fog 54 12 54 12 100 100 undefined N/A 30.15 1021 6 10 N/A
7:53 am 07:53 Sunny with Patchy Fog 57 13.9 56 13.3 96 96 undefined N/A 30.16 1021 6 10 N/A
8:53 am 08:53 Sunny 62 16.7 58 14.4 86 86 NNE 5 7 30.16 1021 10 16 N/A
9:53 am 09:53 Sunny 68 20 60 15.6 76 76 NNE 5 7 30.16 1021 10 16 N/A
10:53 am 10:53 Sunny 74 23.3 59 15 60 60 VRB 3 6 30.16 1022 10 16 N/A
11:53 am 11:53 Mostly Sunny 76 24.4 57 13.9 52 52 SE 8 13 30.16 1021 10 16 N/A
12:53 pm 12:53 Mostly Sunny 78 25.6 57 13.9 48 48 E 6 9 30.14 1021 10 16 N/A
1:53 pm 13:53 Sunny 79 26.1 57 13.9 47 47 E 6 9 30.12 1020 10 16 N/A
2:53 pm 14:53 Sunny 80 26.7 55 12.8 42 42 E 8 13 30.10 1019 10 16 N/A
3:53 pm 15:53 Sunny 79 26.1 58 14.4 49 49 SW 5 7 30.09 1019 10 16 N/A
4:53 pm 16:53 Sunny 79 26.1 58 14.4 49 49 S 12 19 30.07 1018 10 16 N/A
5:53 pm 17:53 Sunny 77 25 58 14.4 52 52 S 7 11 30.05 1018 10 16 N/A
6:53 pm 18:53 Sunny 77 25 58 14.4 52 52 ESE 3 6 30.04 1017 10 16 N/A
7:53 pm 19:53 Sunny 71 21.7 65 18.3 81 81 ESE 5 7 30.03 1017 10 16 N/A
8:53 pm 20:53 Clear 67 19.4 62 16.7 84 84 N N/A 30.04 1017 10 16 N/A
9:53 pm 21:53 Clear 65 18.3 62 16.7 90 90 N N/A 30.04 1017 10 16 N/A
10:53 pm 22:53 Clear 64 17.8 62 16.7 93 93 N N/A 30.04 1017 10 16 N/A
11:53 pm 23:53 Clear 63 17.2 61 16.1 93 93 N N/A 30.04 1017 10 16 N/A

Powered by AerisWeather